Meteo pe oră la Dzialosze

Astăzi, 16 Ianuarie, Sâmbătă

Timp Temperatura Precipitaţii Vânt Presiune Umiditate
00:00 -7°C° 0.1 mm 3 m/s 747 mmHg 95%
01:00 -8°C° 0 mm 4 m/s 747 mmHg 96%
02:00 -8°C° 0 mm 4 m/s 747 mmHg 95%
03:00 -8°C° 0 mm 4 m/s 747 mmHg 95%
04:00 -8°C° 0 mm 4 m/s 747 mmHg 94%
05:00 -8°C° 0.1 mm 4 m/s 747 mmHg 94%
06:00 -8°C° 0.1 mm 4 m/s 747 mmHg 94%
07:00 -7°C° 0.1 mm 4 m/s 747 mmHg 94%
08:00 -8°C° 0.1 mm 5 m/s 747 mmHg 93%
09:00 -8°C° 0.1 mm 5 m/s 747 mmHg 93%
10:00 -8°C° 0.1 mm 5 m/s 747 mmHg 92%
11:00 -9°C° 0.1 mm 6 m/s 746 mmHg 91%
12:00 -8°C° 0.1 mm 6 m/s 746 mmHg 90%
13:00 -8°C° 0.1 mm 6 m/s 745 mmHg 89%
14:00 -8°C° 0.1 mm 6 m/s 745 mmHg 90%
15:00 -8°C° 0.1 mm 6 m/s 744 mmHg 91%
16:00 -8°C° 0.1 mm 6 m/s 744 mmHg 92%
17:00 -8°C° 0.4 mm 6 m/s 743 mmHg 93%
18:00 -8°C° 0.4 mm 7 m/s 743 mmHg 93%
19:00 -8°C° 0.4 mm 8 m/s 743 mmHg 94%
20:00 -8°C° 0.5 mm 7 m/s 743 mmHg 94%
21:00 -8°C° 0.5 mm 7 m/s 743 mmHg 94%
22:00 -8°C° 0.5 mm 7 m/s 743 mmHg 94%
23:00 -10°C° 0.3 mm 6 m/s 743 mmHg 93%

Mâine, 17 Ianuarie, Duminică

Timp Temperatura Precipitaţii Vânt Presiune Umiditate
00:00 -11°C° 0.3 mm 5 m/s 743 mmHg 91%
01:00 -12°C° 0.3 mm 4 m/s 743 mmHg 90%
02:00 -14°C° 0 mm 4 m/s 743 mmHg 91%
03:00 -16°C° 0 mm 4 m/s 743 mmHg 92%
04:00 -16°C° 0 mm 3 m/s 743 mmHg 93%
05:00 -17°C° 0 mm 3 m/s 743 mmHg 94%
06:00 -17°C° 0 mm 2 m/s 744 mmHg 94%
07:00 -18°C° 0 mm 2 m/s 744 mmHg 95%
08:00 -15°C° 0 mm 1 m/s 745 mmHg 93%
09:00 -15°C° 0 mm 1 m/s 745 mmHg 91%
10:00 -14°C° 0 mm 1 m/s 745 mmHg 89%
11:00 -14°C° 0 mm 1 m/s 746 mmHg 88%
12:00 -13°C° 0 mm 1 m/s 746 mmHg 87%
13:00 -12°C° 0 mm 1 m/s 746 mmHg 86%
14:00 -13°C° 0 mm 1 m/s 746 mmHg 88%
15:00 -14°C° 0 mm 1 m/s 746 mmHg 91%
16:00 -14°C° 0 mm 1 m/s 746 mmHg 93%
17:00 -15°C° 0 mm 1 m/s 747 mmHg 93%
18:00 -15°C° 0 mm 1 m/s 747 mmHg 94%
19:00 -15°C° 0 mm 0 m/s 747 mmHg 94%
20:00 -15°C° 0 mm 0 m/s 748 mmHg 93%
21:00 -15°C° 0 mm 0 m/s 748 mmHg 93%
22:00 -15°C° 0 mm 0 m/s 748 mmHg 93%
23:00 -15°C° 0 mm 0 m/s 748 mmHg 92%

Poimâine, 18 Ianuarie, Luni

Timp Temperatura Precipitaţii Vânt Presiune Umiditate
00:00 -15°C° 0 mm 0 m/s 748 mmHg 92%
01:00 -15°C° 0 mm 0 m/s 748 mmHg 92%
02:00 -15°C° 0 mm 1 m/s 748 mmHg 92%
03:00 -15°C° 0 mm 1 m/s 748 mmHg 91%
04:00 -15°C° 0 mm 1 m/s 748 mmHg 91%
05:00 -15°C° 0 mm 1 m/s 748 mmHg 90%
06:00 -15°C° 0 mm 1 m/s 748 mmHg 90%
07:00 -15°C° 0 mm 1 m/s 748 mmHg 90%
08:00 -16°C° 0 mm 2 m/s 748 mmHg 89%
09:00 -15°C° 0 mm 2 m/s 748 mmHg 88%
10:00 -14°C° 0 mm 2 m/s 748 mmHg 88%
11:00 -13°C° 0 mm 2 m/s 748 mmHg 87%
12:00 -12°C° 0 mm 2 m/s 748 mmHg 86%
13:00 -9°C° 0 mm 2 m/s 747 mmHg 86%
14:00 -9°C° 0 mm 2 m/s 747 mmHg 86%
15:00 -9°C° 0 mm 2 m/s 747 mmHg 87%
16:00 -9°C° 0 mm 2 m/s 747 mmHg 88%
17:00 -9°C° 0.1 mm 2 m/s 747 mmHg 90%
18:00 -8°C° 0.1 mm 2 m/s 747 mmHg 93%
19:00 -7°C° 0.1 mm 2 m/s 747 mmHg 96%
20:00 -7°C° 0.2 mm 3 m/s 747 mmHg 96%
21:00 -7°C° 0.2 mm 3 m/s 746 mmHg 96%
22:00 -6°C° 0.2 mm 3 m/s 746 mmHg 97%
23:00 -5°C° 0.5 mm 3 m/s 746 mmHg 97%

19 Ianuarie, Marţi

Timp Temperatura Precipitaţii Vânt Presiune Umiditate
00:00 -4°C° 0.5 mm 4 m/s 746 mmHg 97%
01:00 -4°C° 0.5 mm 4 m/s 746 mmHg 97%
02:00 -4°C° 0.3 mm 5 m/s 745 mmHg 97%
03:00 -4°C° 0.3 mm 5 m/s 745 mmHg 97%
04:00 -2°C° 0.3 mm 5 m/s 745 mmHg 97%
05:00 -2°C° 0.2 mm 4 m/s 745 mmHg 97%
06:00 -2°C° 0.2 mm 4 m/s 745 mmHg 97%
07:00 -2°C° 0.2 mm 4 m/s 745 mmHg 97%
08:00 -2°C° 0.1 mm 4 m/s 745 mmHg 96%
09:00 -2°C° 0.1 mm 4 m/s 745 mmHg 95%
10:00 -2°C° 0.1 mm 4 m/s 744 mmHg 94%
11:00 -2°C° 0 mm 4 m/s 744 mmHg 92%
12:00 -2°C° 0 mm 4 m/s 743 mmHg 91%
13:00 -2°C° 0 mm 4 m/s 743 mmHg 89%
14:00 -2°C° 0 mm 5 m/s 742 mmHg 89%
15:00 -2°C° 0 mm 5 m/s 742 mmHg 89%
16:00 -2°C° 0 mm 5 m/s 741 mmHg 90%
17:00 -2°C° 0.4 mm 5 m/s 741 mmHg 92%
18:00 -3°C° 0.4 mm 6 m/s 741 mmHg 95%
19:00 -3°C° 0.4 mm 7 m/s 741 mmHg 97%
20:00 -3°C° 0.6 mm 6 m/s 740 mmHg 96%
21:00 -3°C° 0.6 mm 6 m/s 740 mmHg 96%
22:00 -2°C° 0.6 mm 6 m/s 740 mmHg 95%
23:00 -2°C° 0.2 mm 6 m/s 739 mmHg 93%

20 Ianuarie, Miercuri

Timp Temperatura Precipitaţii Vânt Presiune Umiditate
00:00 -2°C° 0.2 mm 6 m/s 739 mmHg 92%
01:00 -2°C° 0.2 mm 6 m/s 739 mmHg 90%
02:00 -1°C° 0 mm 5 m/s 739 mmHg 89%
03:00 -1°C° 0 mm 5 m/s 739 mmHg 89%
04:00 -1°C° 0 mm 5 m/s 739 mmHg 88%
05:00 -1°C° 0 mm 5 m/s 739 mmHg 88%
06:00 -1°C° 0 mm 5 m/s 739 mmHg 87%
07:00 -1°C° 0 mm 5 m/s 739 mmHg 87%
08:00 -1°C° 0 mm 5 m/s 739 mmHg 87%
09:00 0°C° 0 mm 5 m/s 739 mmHg 87%
10:00 -1°C° 0 mm 6 m/s 738 mmHg 87%
11:00 -1°C° 0 mm 6 m/s 738 mmHg 86%
12:00 -1°C° 0 mm 6 m/s 738 mmHg 86%
13:00 -1°C° 0 mm 6 m/s 738 mmHg 85%
14:00 0°C° 0 mm 5 m/s 738 mmHg 82%
15:00 0°C° 0 mm 5 m/s 737 mmHg 79%
16:00 0°C° 0 mm 5 m/s 737 mmHg 77%
17:00 0°C° 0 mm 5 m/s 737 mmHg 77%
18:00 -1°C° 0 mm 5 m/s 737 mmHg 77%
19:00 -1°C° 0 mm 5 m/s 737 mmHg 77%
20:00 -1°C° 0 mm 5 m/s 737 mmHg 76%
21:00 -1°C° 0 mm 5 m/s 737 mmHg 76%
22:00 -1°C° 0 mm 5 m/s 737 mmHg 76%
23:00 -1°C° 0 mm 5 m/s 737 mmHg 78%

21 Ianuarie, Joi

Timp Temperatura Precipitaţii Vânt Presiune Umiditate
00:00 -2°C° 0 mm 6 m/s 736 mmHg 79%
01:00 -1°C° 0 mm 6 m/s 736 mmHg 81%
02:00 -1°C° 0 mm 7 m/s 736 mmHg 82%
03:00 -1°C° 0 mm 7 m/s 735 mmHg 84%
04:00 0°C° 0 mm 8 m/s 735 mmHg 85%
05:00 0°C° 0 mm 7 m/s 735 mmHg 86%
06:00 0°C° 0 mm 7 m/s 734 mmHg 86%
07:00 -1°C° 0 mm 6 m/s 734 mmHg 87%
08:00 0°C° 0 mm 5 m/s 734 mmHg 89%
09:00 0°C° 0 mm 4 m/s 734 mmHg 92%
10:00 +1°C° 0 mm 3 m/s 733 mmHg 94%
11:00 +1°C° 0 mm 3 m/s 733 mmHg 95%
12:00 +1°C° 0 mm 3 m/s 733 mmHg 97%
13:00 +1°C° 0 mm 3 m/s 733 mmHg 99%
14:00 0°C° 0 mm 4 m/s 733 mmHg 96%
15:00 0°C° 0 mm 4 m/s 734 mmHg 93%
16:00 0°C° 0 mm 5 m/s 734 mmHg 90%
17:00 -1°C° 0 mm 5 m/s 735 mmHg 88%
18:00 -1°C° 0 mm 5 m/s 735 mmHg 85%
19:00 -1°C° 0 mm 4 m/s 736 mmHg 83%
20:00 -1°C° 0 mm 4 m/s 736 mmHg 84%
21:00 -1°C° 0 mm 4 m/s 737 mmHg 85%
22:00 0°C° 0 mm 3 m/s 737 mmHg 86%
23:00 0°C° 0 mm 3 m/s 737 mmHg 87%
Arată mai mult

Formular de consimțământ

Meteoprog și furnizorii noștri de servicii pot stoca și accesa date personale, precum cookies, identificatori de dispozitiv sau alte tehnologii similare pe dispozitivul dumneavoastră și procesa astfel de date pentru a personaliza conținutul și reclamele, dar și pentru a oferi caracteristici de social media și pentru a analiza traficul.

  • Stocarea și/sau accesarea informațiilor pe dispozitivul dumneavoastră

    Cookies, identificatori de dispozitiv sau alte informații pot fi stocate sau accesate pe dispozitiv în scopurile indicate mai sus.

  • Reclame și conținut personalizat, evaluarea reclamelor și a conținutului, informații despre audiențe și dezvoltarea produselor

    Reclamele și conținutul pot fi personalizate pe baza unui profil. Pot fi adăugate date suplimentare pentru a personaliza mai bine reclamele și conținutul. Performanța reclamelor și conținutului poate fi măsurată. Pot fi obținute informații despre utilizatorii care au văzut reclamele și conținutul. Aceste date pot fi utilizate pentru a dezvolta sau îmbunătăți experiența utilizatorilor, sistemele și software-ul.

Dând clic pe ‘Sunt de acord’, permiteți utilizarea cookie-urilor menționate, a identificatorilor de dispozitiv, balizelor web sau altor tehnologii similare. Setările pot fi modificate din browser-ul dispozitivului dumneavoastră.

În anumite scopuri, interesele legitime pot prima asupra consimțământului. Puteți citi mai multe informații în acest sens în Politica privind Confidențialitatea Datelor și Cookie.